SCP
0 0 0 0 0 0 0 0 0 0 0 0 0 0 0 0 0 0 0 0 0 0 0 0 0 0 0 0 0 0 0 0 0 0 0 0 0 0 0 0 0 0 0
0 0 0 0 0 0 0 0 0 0 0 0 0 0 0 0 0 0 0 0 0 0 0 0 0 0 0 0 0 0 0 0 0 0 0 0 0 0 0 0 0 0 0
0 0 0 0 0 0 0 0 0 0 0 0 0 0 0 0 0 0 0 0 0 0 0 0 0 0 0 0 0 0 0 0 0 0 0 0 0 0 0 0 0 0 0
0 0 0 0 0 0 0 0 0 0 0 0 0 0 0 0 0 0 0 0 0 0 0 0 0 0 0 0 0 0 0 0 0 0 0 0 0 0 0 0 0 0 0
0 0 0 0 0 0 0 0 0 0 0 0 0 0 0 0 0 0 0 0 0 0 0 0 0 0 0 0 0 0 0 0 0 0 0 0 0 0 0 0 0 0 0
0 0 0 0 0 0 0 0 0 0 0 0 0 0 0 0 0 0 0 0 0 0 0 0 0 0 0 0 0 0 0 0 0 0 0 0 0 0 0 0 0 0 0
0 0 0 0 0 0 0 0 0 0 0 0 0 0 0 0 0 0 0 0 0 0 0 0 0 -0 0 0 0 0 0 0 0 0 0 0 0 0 0 0 0 0 0
0 0 0 0 0 0 0 0 0 0 0 0 0 0 0 0 0 0 0 0 0 0 0 0 0 0 0 0 0 0 0 0 0 0 0 0 0 0 0 0 0 0 0
0 0 0 0 0 0 0 0 0 0 0 0 0 0 0 0 0 0 0 0 0 0 0 0 0 0 0 0 0 0 0 0 0 0 0 0 0 0 0 0 0 0 0
0 0 0 0 0 0 0 0 0 0 0 0 0 0 0 0 0 0 0 0 0 0 0 0 0 0 0 0 0 0 0 0 0 0 0 0 0 0 0 0 0 0 0
0 0 0 0 0 0 0 0 0 0 0 0 0 0 0 0 0 0 0 0 0 0 0 0 0 0 0 0 0 0 0 0 0 0 0 0 0 0 0 0 0 0 0
0 0 0 0 0 0 0 0 0 0 0 0 0 0 0 0 0 0 0 0 0 0 0 0 0 0 0 0 0 0 0 0 0 0 0 0 0 0 0 0 0 0 0
0 0 0 0 0 0 0 0 0 0 0 0 0 0 0 0 0 0 0 0 0 0 0 0 0 0 0 0 0 0 0 0 0 0 0 0 0 0 0 0 0 0 0
0 0 0 0 0 0 0 0 0 0 0 0 0 0 0 0 0 0 0 0 0 0 0 0 0 0 0 0 0 0 0 0 0 0 0 0 0 0 0 0 0 0 0
0 0 0 0 0 0 0 0 0 0 0 0 0 0 0 0 0 0 0 0 0 0 0 0 0 0 0 0 0 0 0 0 0 0 0 0 0 0 0 0 0 0 0
0 0 0 0 0 0 0 0 0 0 0 0 0 0 0 0 0 0 0 0 0 0 0 0 0 0 0 0 0 0 0 0 0 0 0 0 0 0 0 0 0 0 0
0 0 0 0 0 0 0 0 0 0 0 0 0 0 0 0 0 0 0 0 0 0 0 0 0 0 0 0 0 0 0 0 0 0 0 0 0 0 0 0 0 0 0
0 0 0 0 0 0 0 0 0 0 0 0 0 0 0 0 0 0 0 0 0 0 0 0 0 0 0 0 0 0 0 0 0 0 0 0 0 0 0 0 0 0 0
0 0 0 0 0 0 0 0 0 0 0 0 0 0 0 0 0 0 0 0 0 0 0 0 0 0 0 0 0 0 0 0 0 0 0 0 0 0 0 0 0 0 0
0 0 0 0 0 0 0 0 0 0 0 0 0 0 0 0 0 0 0 0 0 0 0 0 0 0 0 0 0 0 0 0 0 0 0 0 0 0 0 0 0 0 0
0 0 0 0 0 0 0 0 0 0 0 0 0 0 0 0 0 0 0 0 0 0 0 0 0 0 0 0 0 0 0 0 0 0 0 0 0 0 0 0 0 0 0
0 0 0 0 0 0 0 0 0 0 0 0 0 0 0 0 0 0 0 0 0 0 0 0 0 0 0 0 0 0 0 0 0 0 0 0 0 0 0 0 0 0 0
0 0 0 0 0 0 0 0 0 0 0 0 0 0 0 0 0 0 0 0 0 0 0 0 0 0 0 0 0 0 0 0 0 0 0 0 0 0 0 0 0 0 0
0 0 0 0 0 0 0 0 0 0 0 0 0 0 0 0 0 0 0 0 0 0 0 0 0 0 0 0 0 0 0 0 0 0 0 0 0 0 0 0 0 0 0
0 0 0 0 0 0 0 0 0 0 0 0 0 0 0 0 0 0 0 0 0 0 0 0 0 0 0 0 0 0 0 0 0 0 0 0 0 0 0 0 0 0 0
0 0 0 0 0 0 0 0 0 0 0 0 0 0 0 0 0 0 0 0 0 0 0 0 0 0 0 0 0 0 0 0 0 0 0 0 0 0 0 0 0 0 0
Wind_Speed
4 4 3 3 3 2 3 3 3 2 3 3 3 3 3 3 3 3 4 4 4 4 4 5 6 5 4 4 4 4 4 4 5 4 2 2 3 4 3 4 4 4 4
4 3 3 2 3 2 2 3 3 3 3 4 3 3 3 3 3 4 4 4 4 5 5 5 5 4 5 4 4 5 4 5 5 5 3 2 3 3 3 3 3 4 4
3 3 3 2 3 3 3 2 2 3 3 3 3 3 4 4 4 4 4 4 4 5 5 5 5 5 5 4 4 4 4 4 4 4 4 2 2 2 2 3 4 3 4
3 4 3 3 3 3 3 3 3 3 2 3 3 4 4 3 3 3 3 4 4 4 4 4 5 6 6 5 4 5 4 4 4 4 3 3 3 2 2 3 3 3 4
3 3 4 3 3 3 3 2 2 2 3 3 2 2 2 3 3 4 4 4 4 3 3 4 4 6 7 6 5 5 5 4 3 3 3 3 3 3 3 3 4 3 3
4 4 3 2 3 3 3 2 2 2 2 2 2 3 3 3 4 5 4 4 4 4 4 3 4 5 6 7 7 7 7 6 6 4 4 5 5 5 4 4 3 3 4
2 3 3 3 3 3 3 2 2 2 2 2 3 2 3 4 4 5 5 3 4 4 4 3 3 3 4 4 5 6 7 9 9 7 6 7 6 5 5 5 5 5 5
2 3 3 3 3 3 2 3 3 2 2 3 3 3 3 3 3 3 3 3 3 3 4 4 4 4 4 4 4 4 5 6 7 6 6 7 6 5 6 6 5 4 4
2 3 3 3 3 3 3 3 3 2 2 3 2 2 3 3 3 3 2 1 2 3 3 4 5 5 5 5 3 4 5 5 6 7 8 7 8 8 6 4 4 4 4
3 3 3 3 3 3 3 3 2 2 3 2 2 2 2 3 3 3 2 2 2 3 3 3 5 5 6 5 4 5 6 6 4 4 5 5 6 6 8 7 6 5 3
2 2 2 2 3 3 3 2 2 2 1 2 2 2 2 3 3 4 3 2 3 3 3 3 3 5 6 7 6 6 8 7 5 5 4 4 4 4 5 6 6 6 5
1 1 2 2 2 2 1 1 1 2 2 2 2 2 2 2 3 4 5 5 4 4 4 4 4 6 7 7 6 8 9 7 4 4 4 4 4 4 5 5 6 6 6
1 1 2 2 1 1 1 2 1 1 2 2 2 3 3 2 3 4 5 5 6 4 4 5 6 7 6 5 7 8 6 4 4 4 5 5 5 4 4 3 4 4 5
1 2 1 1 2 1 1 1 1 2 2 3 3 3 3 3 2 2 2 3 3 4 3 4 4 5 5 5 5 4 4 4 5 5 5 4 4 3 3 3 3 3 2
1 1 2 1 1 2 1 1 2 3 4 4 3 3 3 4 4 4 3 3 3 3 2 1 2 2 2 3 3 3 3 3 4 4 4 4 4 4 3 3 3 3 3
0 1 1 1 1 1 1 2 2 3 4 5 6 5 4 6 6 5 5 5 5 4 2 2 3 3 4 4 4 4 4 4 4 4 4 4 4 4 3 3 3 4 4
1 1 1 1 1 2 1 2 3 4 3 3 4 5 6 6 5 5 5 4 3 3 2 3 4 4 4 4 4 4 4 4 4 4 4 4 4 4 4 3 3 3 4
1 1 1 1 2 2 2 2 2 2 3 3 3 4 5 5 6 5 4 1 1 2 3 4 4 4 4 4 4 4 4 4 3 4 4 4 4 4 4 4 4 4 4
1 1 1 1 1 1 2 2 2 3 3 3 3 4 4 4 4 4 2 2 3 3 4 5 5 4 4 4 4 4 4 4 4 3 4 4 4 4 4 4 4 4 4
1 2 2 1 1 1 1 2 2 3 3 3 4 4 2 1 2 2 2 3 3 4 4 4 4 4 4 4 4 4 4 4 4 3 4 4 4 4 5 5 4 4 4
1 2 2 2 2 2 2 2 3 3 3 4 4 4 4 3 3 3 3 3 4 4 4 4 4 4 4 4 4 4 4 4 4 4 4 4 4 4 4 4 4 4 4
1 1 2 2 2 2 2 3 3 3 4 5 5 4 4 3 3 3 3 4 4 4 4 4 4 4 4 4 4 4 4 4 4 4 4 4 4 4 4 4 4 4 4
1 2 2 2 2 3 3 3 3 3 4 4 4 4 3 3 3 3 4 4 4 4 4 4 4 4 4 4 4 4 5 5 4 4 4 4 4 4 4 4 5 5 5
2 2 2 2 2 2 3 3 3 3 4 4 4 3 3 3 3 4 4 4 4 4 4 4 4 5 6 4 3 3 4 4 4 4 5 5 5 4 4 5 5 6 5
2 2 2 2 3 3 3 4 4 3 3 4 4 4 3 3 3 4 3 3 4 4 4 4 3 4 6 6 5 4 4 5 4 3 3 4 5 5 5 5 5 5 5
2 2 2 2 3 3 3 3 3 3 3 3 3 3 3 3 3 4 3 3 3 3 4 3 4 5 5 5 5 5 4 4 4 4 3 4 5 5 5 4 6 6 6
Wind_Direction
177 177 173 182 177 175 190 205 206 207 201 203 214 216 219 225 218 206 215 211 219 229 226 223 229 221 216 214 207 205 209 204 230 254 241 242 231 245 249 237 234 233 233
174 166 172 169 158 169 197 207 200 213 218 214 213 218 225 229 225 215 220 219 221 228 230 226 233 224 221 217 210 213 214 209 215 242 247 237 235 242 246 244 244 235 233
166 166 167 174 174 189 208 211 202 210 224 222 213 220 230 228 226 222 218 221 223 226 226 225 231 224 227 221 216 218 218 214 213 225 244 241 247 247 249 257 252 246 242
167 169 180 196 202 206 208 205 203 202 206 221 220 221 224 223 225 219 220 221 223 230 234 233 232 225 224 220 220 220 217 215 212 221 237 244 247 244 226 242 258 248 251
172 185 203 201 201 202 204 206 202 203 215 219 219 228 226 222 225 220 222 224 226 233 239 239 236 231 223 217 218 214 209 213 216 224 232 236 238 227 227 224 242 257 255
185 204 208 196 199 208 209 205 201 217 232 226 227 228 236 244 241 231 225 222 220 224 234 243 245 238 235 229 227 216 205 208 213 218 229 233 239 233 229 224 229 240 259
198 208 202 201 207 216 210 200 214 223 226 236 237 236 250 261 258 247 235 219 219 222 223 230 243 245 233 231 236 235 228 223 215 212 224 234 236 230 223 231 227 228 244
207 217 210 202 213 219 210 224 231 222 221 230 234 238 247 267 268 253 239 215 220 228 229 227 231 246 243 230 233 241 242 236 227 221 227 236 239 236 224 227 230 237 253
223 227 223 208 213 217 225 233 233 221 231 233 234 229 233 265 264 253 230 213 230 245 242 233 227 237 243 228 223 240 253 256 244 235 234 242 245 241 228 217 214 218 245
234 230 229 216 209 219 231 232 228 217 233 241 242 236 233 254 261 257 225 207 235 257 260 250 237 237 243 228 219 230 245 252 251 255 253 254 249 243 223 217 215 218 233
249 234 231 224 221 225 235 228 210 215 227 237 247 260 251 252 258 254 228 204 222 241 253 256 249 242 245 242 230 229 236 241 245 243 249 255 253 246 236 226 217 215 223
317 272 257 243 239 238 227 236 207 196 212 245 260 279 270 256 247 255 242 226 221 223 242 250 248 246 249 248 240 238 239 237 238 239 243 249 249 247 244 237 230 228 230
356 319 300 293 272 243 214 224 227 215 220 244 247 263 279 279 265 255 253 243 234 231 247 250 251 251 255 254 247 244 237 228 225 231 240 246 245 245 247 244 238 233 240
344 310 314 322 322 316 253 208 208 231 241 247 250 258 272 277 276 273 261 255 246 244 259 268 262 253 249 250 257 247 228 221 223 234 241 247 248 246 241 233 233 222 234
343 313 318 325 322 316 301 259 241 241 228 228 240 243 249 264 260 256 249 251 244 241 248 266 260 260 259 258 257 256 243 230 231 236 238 243 244 244 245 232 221 216 226
286 289 288 302 302 293 302 320 296 259 263 245 238 239 249 250 263 264 262 259 246 219 192 237 255 258 256 254 254 256 249 241 236 235 237 236 237 239 245 238 225 223 230
231 260 272 268 275 289 297 303 313 320 308 287 271 261 254 265 269 268 262 258 247 180 199 240 248 253 257 255 252 251 250 249 237 233 236 236 234 234 233 239 239 238 239
249 262 265 263 272 277 275 278 281 291 310 313 302 280 276 272 270 269 261 235 267 214 233 244 251 254 254 255 255 253 253 252 242 237 235 234 231 232 232 234 236 242 244
282 281 277 275 278 275 278 278 282 286 284 289 305 306 292 283 280 272 216 216 242 249 246 248 252 255 256 256 256 253 250 248 244 234 234 233 231 230 235 238 236 230 231
298 297 295 279 282 291 289 290 293 292 288 286 285 286 293 286 281 275 247 245 248 254 254 255 260 262 259 256 253 250 251 252 245 237 238 235 232 228 233 235 234 230 226
278 292 304 300 286 282 283 284 283 286 290 287 283 278 264 260 262 263 262 257 256 259 259 260 263 263 259 256 252 250 251 252 248 244 240 235 229 228 231 231 233 232 228
281 276 275 276 284 288 286 283 282 283 288 290 293 294 278 268 271 269 266 264 263 260 257 256 257 255 254 255 252 250 251 252 250 245 243 239 235 234 234 231 227 226 223
290 287 287 284 284 290 294 291 289 290 293 294 292 294 290 278 277 276 274 273 272 271 267 259 259 259 257 254 250 244 244 246 245 239 236 236 234 233 230 226 225 224 222
275 271 276 286 288 287 287 286 285 285 289 294 295 291 288 283 281 281 282 283 281 278 273 264 260 262 265 264 257 250 248 250 247 240 236 239 237 233 226 223 225 223 222
288 278 275 277 278 279 282 285 284 287 292 297 299 295 293 290 291 293 292 290 292 290 290 285 275 269 268 265 261 260 257 249 244 241 235 233 234 233 229 229 226 226 221
302 292 287 284 281 279 277 280 284 288 289 292 295 293 293 294 294 298 302 303 305 304 301 295 292 288 282 270 265 260 248 244 238 233 233 228 228 230 226 227 226 224 221